GW7934 Weather Reports


time (UTC)temp
C
wind
direction
speed
KPH
gust
KPH
rain 1hr
cm
rain 24hr
cm
rain mn
cm
humidity
%
barometer
mb
20260906071521 22 161 0.0 0.0 0.00 0.00 0.00 91 1011.5
20260906070037 22 160 0.0 0.0 0.00 0.00 0.00 90 1011.5
20260906064508 22 191 0.0 0.0 0.00 0.00 0.00 91 1011.7
20260906063012 22 191 0.0 0.0 0.00 0.00 0.00 91 1011.9
20260906061520 22 191 0.0 0.0 0.00 0.00 0.00 91 1012.4
20260906060028 22 191 0.0 0.0 0.00 0.00 0.00 90 1012.5
20260906054509 22 191 0.0 0.0 0.00 0.00 0.00 90 1012.8
20260906053010 22 239 0.0 0.0 0.00 0.00 0.00 90 1012.9
20260906051520 22 278 0.0 0.0 0.00 0.00 0.00 90 1013.1
20260906050025 22 16 0.0 0.0 0.00 0.00 0.00 90 1013.1
20260906044526 22 18 0.0 1.6 0.00 0.00 0.00 90 1013.1
20260906043010 22 65 0.0 0.0 0.00 0.00 0.00 90 1013.1
20260906041514 22 90 0.0 0.0 0.00 0.00 0.00 89 1013.0
20260906040018 22 101 0.0 3.2 0.00 0.00 0.00 89 1012.9
20260906034528 22 46 0.0 3.2 0.00 0.00 0.00 88 1012.8
20260906033006 23 256 0.0 1.6 0.00 0.00 0.00 87 1012.8
20260906031512 23 28 0.0 0.0 0.00 0.00 0.00 87 1012.9
20260906030018 23 27 0.0 1.6 0.00 0.00 0.00 86 1012.9
20260906024525 23 179 1.6 3.2 0.00 0.00 0.00 87 1013.0
20260906023029 23 131 4.8 6.4 0.00 0.00 0.00 86 1013.1
20260906021514 23 59 0.0 0.0 0.00 0.00 0.00 85 1013.1
20260906020017 23 119 0.0 0.0 0.00 0.00 0.00 85 1012.9
20260906014535 23 114 0.0 0.0 0.00 0.00 0.00 84 1012.8
20260906013026 24 150 0.0 0.0 0.00 0.00 0.00 83 1012.7
20260906011531 24 241 0.0 3.2 0.00 0.00 0.00 83 1012.6
20260906010014 24 155 0.0 3.2 0.00 0.00 0.00 82 1012.2
20260906004518 25 181 0.0 3.2 0.00 0.00 0.00 81 1012.1
20260906003028 25 143 0.0 3.2 0.00 0.00 0.00 80 1011.9
20260906001531 25 125 0.0 1.6 0.00 0.00 0.00 79 1011.8
20260906000032 25 115 0.0 3.2 0.00 0.00 0.00 78 1012.0
20260905234517 25 145 0.0 4.8 0.00 0.00 0.00 77 1012.2
20260905233023 26 170 0.0 3.2 0.00 0.00 0.00 76 1012.2
20260905231527 26 157 4.8 11.3 0.00 0.00 0.00 73 1012.0
20260905230038 26 155 1.6 9.7 0.00 0.00 0.00 70 1012.0
20260905224515 27 157 1.6 6.4 0.00 0.00 0.00 67 1012.1
20260905223030 27 98 0.0 0.0 0.00 0.00 0.00 65 1012.0
20260905221528 27 82 0.0 0.0 0.00 0.00 0.00 66 1012.3
20260905220031 27 66 0.0 3.2 0.00 0.00 0.00 68 1011.6
20260905214531 27 1 0.0 3.2 0.00 0.00 0.00 70 1011.2
20260905213019 27 337 0.0 3.2 0.00 0.00 0.00 70 1011.4
20260905211525 26 141 3.2 9.7 0.00 0.00 0.00 68 1012.1
20260905210029 26 179 3.2 8.0 0.00 0.00 0.00 67 1012.7
20260905204528 27 25 6.4 12.9 0.00 0.00 0.00 70 1012.3
20260905203031 30 25 11.3 22.5 0.00 0.00 0.00 58 1012.3
20260905201522 36 5 3.2 4.8 0.00 0.00 0.00 47 1010.9
20260905200004 36 12 0.0 3.2 0.00 0.00 0.00 44 1010.7
20260905194507 37 20 1.6 3.2 0.00 0.00 0.00 44 1011.1
20260905193012 37 254 0.0 11.3 0.00 0.00 0.00 43 1011.0
20260905191513 37 55 1.6 8.0 0.00 0.00 0.00 44 1011.2
20260905190036 37 12 1.6 8.0 0.00 0.00 0.00 45 1011.1
20260905184508 37 26 3.2 6.4 0.00 0.00 0.00 44 1011.4
20260905183015 36 38 3.2 9.7 0.00 0.00 0.00 46 1011.9
20260905181522 36 1 0.0 3.2 0.00 0.00 0.00 48 1012.0
20260905180020 36 72 3.2 6.4 0.00 0.00 0.00 47 1012.4
20260905174517 36 80 1.6 6.4 0.00 0.00 0.00 47 1012.6
20260905173010 34 15 0.0 6.4 0.00 0.00 0.00 50 1012.8
20260905171514 33 289 3.2 8.0 0.00 0.00 0.00 53 1012.9
20260905170016 34 155 1.6 12.9 0.00 0.00 0.00 51 1013.3
20260905164527 34 236 3.2 9.7 0.00 0.00 0.00 55 1013.6
20260905163010 33 264 3.2 8.0 0.00 0.00 0.00 55 1013.8
20260905161514 33 174 3.2 8.0 0.00 0.00 0.00 57 1013.9
20260905160019 32 215 4.8 11.3 0.00 0.00 0.00 60 1014.0
20260905154523 32 258 4.8 9.7 0.00 0.00 0.00 61 1014.2
20260905153029 32 221 3.2 9.7 0.00 0.00 0.00 61 1014.4
20260905151509 32 268 1.6 9.7 0.00 0.00 0.00 64 1014.5
20260905150019 31 224 1.6 8.0 0.00 0.00 0.00 66 1014.6
20260905144523 30 240 3.2 9.7 0.00 0.00 0.00 70 1014.7
20260905143024 30 53 1.6 9.7 0.00 0.00 0.00 71 1014.8
20260905141524 29 34 4.8 9.7 0.00 0.00 0.00 73 1014.9
20260905140016 28 298 1.6 4.8 0.00 0.00 0.00 75 1014.8
20260905134525 28 236 3.2 6.4 0.00 0.00 0.00 78 1014.9
20260905133032 27 283 3.2 8.0 0.00 0.00 0.00 79 1015.0
20260905131536 27 244 4.8 9.7 0.00 0.00 0.00 82 1015.1
20260905130036 26 271 1.6 8.0 0.00 0.00 0.00 85 1015.2
20260905124518 25 248 1.6 6.4 0.00 0.00 0.00 87 1015.0
20260905123025 25 185 0.0 6.4 0.00 0.00 0.00 88 1014.9
20260905121532 24 201 0.0 4.8 0.00 0.00 0.00 89 1014.7
20260905120033 24 221 1.6 4.8 0.00 0.00 0.00 90 1014.7
20260905114518 23 210 0.0 4.8 0.00 0.00 0.00 91 1014.7
20260905113026 23 257 0.0 4.8 0.00 0.00 0.00 91 1014.6
20260905111548 23 236 1.6 3.2 0.00 0.00 0.00 91 1014.5
20260905110011 23 210 0.0 3.2 0.00 0.00 0.00 90 1014.3
20260905104516 23 240 0.0 3.2 0.00 0.00 0.00 90 1014.2
20260905103027 23 271 0.0 3.2 0.00 0.00 0.00 90 1014.1
20260905101504 23 154 0.0 0.0 0.00 0.00 0.00 90 1013.9
20260905100015 24 259 0.0 0.0 0.00 0.00 0.00 89 1013.9
20260905094514 24 199 0.0 0.0 0.00 0.00 0.00 89 1014.0
20260905093024 24 195 0.0 0.0 0.00 0.00 0.00 89 1013.8
20260905091525 24 203 0.0 0.0 0.00 0.00 0.00 89 1014.0
20260905090008 24 193 0.0 0.0 0.00 0.00 0.00 89 1014.1
20260905084512 24 148 0.0 0.0 0.00 0.00 0.00 89 1014.0
20260905083016 24 188 0.0 0.0 0.00 0.00 0.00 89 1014.0
20260905081526 24 255 0.0 0.0 0.00 0.00 0.00 89 1014.0
20260905080027 24 243 0.0 0.0 0.00 0.00 0.00 89 1014.1
20260905074511 24 176 0.0 0.0 0.00 0.00 0.00 88 1014.2
20260905073022 24 176 0.0 0.0 0.00 0.00 0.00 88 1014.2